This is the latest recevied weather packets stored in our database for station/object KC3QLX. If no packets are shown the sender has not sent any weather packets the latest 10 day(s).
| Time | Temp. | Humidity | Pressure | Rain* | Wind** | Luminosity | Snow |
|---|---|---|---|---|---|---|---|
| 1777305052 | 20° C | 41% | 1024 hPa | 0 mm | - | 766 W/m² | - |
| 1777304747 | 20° C | 46% | 1024.2 hPa | 0 mm | - | 801 W/m² | - |
| 1777304444 | 19.44° C | 47% | 1024.1 hPa | 0 mm | - | 811 W/m² | - |
| 1777304142 | 19.44° C | 46% | 1024 hPa | 0 mm | - | 817 W/m² | - |
| 1777303839 | 19.44° C | 50% | 1024.1 hPa | 0 mm | - | 842 W/m² | - |
| 1777303536 | 19.44° C | 48% | 1024.1 hPa | 0 mm | - | 864 W/m² | - |
| 1777303233 | 19.44° C | 50% | 1024.1 hPa | 0 mm | - | 838 W/m² | - |
| 1777302932 | 19.44° C | 49% | 1024.1 hPa | 0 mm | - | 814 W/m² | - |
| 1777302628 | 18.89° C | 49% | 1024.1 hPa | 0 mm | - | 816 W/m² | - |
| 1777302326 | 18.33° C | 50% | 1024.4 hPa | 0 mm | - | 814 W/m² | - |
| 1777302024 | 18.33° C | 52% | 1024.3 hPa | 0 mm | - | 760 W/m² | - |
| 1777301722 | 17.78° C | 50% | 1024.4 hPa | 0 mm | - | 755 W/m² | - |
| 1777301418 | 17.78° C | 50% | 1024.2 hPa | 0 mm | - | 766 W/m² | - |
| 1777301115 | 17.78° C | 50% | 1024.5 hPa | 0 mm | - | 782 W/m² | - |
| 1777300812 | 17.78° C | 54% | 1024.4 hPa | 0 mm | - | 760 W/m² | - |
| 1777300511 | 17.78° C | 54% | 1024.4 hPa | 0 mm | - | 708 W/m² | - |
| 1777300208 | 17.22° C | 59% | 1024.6 hPa | 0 mm | - | 668 W/m² | - |
| 1777299904 | 17.22° C | 60% | 1024.6 hPa | 0 mm | - | 676 W/m² | - |
| 1777299601 | 16.67° C | 63% | 1024.5 hPa | 0 mm | - | 622 W/m² | - |
| 1777299299 | 16.11° C | 65% | 1024.7 hPa | 0 mm | - | 615 W/m² | - |
| 1777298995 | 15° C | 68% | 1024.4 hPa | 0 mm | - | 636 W/m² | - |
| 1777298693 | 15° C | 70% | 1024.8 hPa | 0 mm | - | 660 W/m² | - |
| 1777298389 | 14.44° C | 76% | 1024.7 hPa | 0 mm | - | 664 W/m² | - |
| 1777298086 | 15° C | 76% | 1024.7 hPa | 0 mm | - | 632 W/m² | - |
| 1777297785 | 13.33° C | 76% | 1024.5 hPa | 0 mm | - | 615 W/m² | - |
* Rain latest hour (hover to see other rain measurements)
** Current wind speed in m/s (hover to see current wind gust speed)